Cape Fear, North Carolina
Current Conditions -  °F | °C
As of 9:10 AM on Thursday 30 Oct 2014 (Local Time) from KILM Reporting Station
Overcast Overcast  
Wind Chill: 59°   Ceiling: 1300
Heat Index: 59°   Visibility: 10mi
Dew Point: 56°   Wind: 9mph
Humidity: 90%   Direction: 30°NNE
Pressure: 30"   Gusts: NA
Location:  34.2436°N, 77.9363°W
Report Text: KILM 301310Z 03008KT 10SM SCT008 BKN013 OVC030 15/13 A3000 RMK AO2 T01500133
Loading
Personal Weather Stations






























Interactive Weather Map
Tropical Storm Tracking
New forecast layout! Learn more

10-Day Weather Forecast

Advertisements
Track Severe Weather on mobile